EW8311 Weather Reports


time (UTC)temp
C
wind
direction
speed
KPH
gust
KPH
rain 1hr
cm
rain 24hr
cm
rain mn
cm
humidity
%
barometer
mb
20260905133003 22 22 0.0 0.0 0.00 0.00 0.00 72 1006.9
20260905131502 22 22 0.0 0.0 0.00 0.00 0.00 73 1006.8
20260905130100 22 22 0.0 0.0 0.00 0.00 0.00 71 1006.6
20260905124559 23 22 0.0 0.0 0.00 0.00 0.00 71 1006.6
20260905123111 22 22 0.0 0.0 0.00 0.00 0.00 72 1006.4
20260905121558 22 22 0.0 1.6 0.00 0.00 0.00 72 1006.3
20260905120057 22 23 0.0 0.0 0.00 0.00 0.00 71 1006.3
20260905114558 22 69 0.0 0.0 0.00 0.00 0.00 73 1006.2
20260905113100 22 69 0.0 0.0 0.00 0.00 0.00 71 1006.2
20260905111559 22 76 0.0 0.0 0.00 0.00 0.00 73 1006.2
20260905110053 22 75 0.0 0.0 0.00 0.00 0.00 73 1006.3
20260905104551 23 76 0.0 0.0 0.00 0.00 0.00 71 1006.2
20260905103057 23 75 0.0 0.0 0.00 0.00 0.00 70 1006.2
20260905101547 23 76 0.0 0.0 0.00 0.00 0.00 69 1006.3
20260905100055 24 75 0.0 0.0 0.00 0.00 0.00 65 1006.3
20260905094545 23 72 0.0 0.0 0.00 0.00 0.00 66 1006.4
20260905093045 23 72 0.0 0.0 0.00 0.00 0.00 67 1006.3
20260905091551 24 72 0.0 0.0 0.00 0.00 0.00 65 1006.3
20260905090042 24 73 0.0 0.0 0.00 0.00 0.00 65 1006.4
20260905084541 24 12 0.0 0.0 0.00 0.00 0.00 65 1006.4
20260905083040 24 3 0.0 0.0 0.00 0.00 0.00 67 1006.5
20260905081538 24 3 0.0 0.0 0.00 0.00 0.00 67 1006.5
20260905080107 24 3 0.0 0.0 0.00 0.00 0.00 65 1006.6
20260905074537 24 3 0.0 0.0 0.00 0.00 0.00 67 1006.6
20260905073033 25 3 0.0 0.0 0.00 0.00 0.00 66 1006.6
20260905071531 25 3 0.0 0.0 0.00 0.00 0.00 62 1006.6
20260905070031 26 3 0.0 0.0 0.00 0.00 0.00 61 1006.5
20260905064525 25 353 0.0 0.0 0.00 0.00 0.00 62 1006.6
20260905063025 26 353 0.0 1.6 0.00 0.00 0.00 60 1006.5
20260905061526 26 353 0.0 1.6 0.00 0.00 0.00 61 1006.4
20260905060039 26 353 0.0 1.6 0.00 0.00 0.00 58 1006.5
20260905054523 27 103 0.0 3.2 0.00 0.00 0.00 55 1006.5
20260905053023 27 91 0.0 0.0 0.00 0.00 0.00 54 1006.2
20260905051525 27 91 0.0 1.6 0.00 0.00 0.00 53 1006.2
20260905050026 28 91 0.0 1.6 0.00 0.00 0.00 52 1006.1
20260905044523 28 92 0.0 4.8 0.00 0.00 0.00 45 1006.0
20260905043021 28 101 3.2 8.0 0.00 0.00 0.00 40 1006.1
20260905041521 28 113 0.0 1.6 0.00 0.00 0.00 44 1005.9
20260905040026 28 333 0.0 0.0 0.00 0.00 0.00 44 1005.9
20260905034519 29 333 0.0 1.6 0.00 0.00 0.00 40 1005.7
20260905033018 29 333 0.0 1.6 0.00 0.00 0.00 38 1005.5
20260905031532 29 319 1.6 1.6 0.00 0.00 0.00 39 1005.2
20260905030018 30 318 1.6 3.2 0.00 0.00 0.00 37 1005.1
20260905024517 30 310 1.6 3.2 0.00 0.00 0.00 37 1004.9
20260905023019 30 310 1.6 3.2 0.00 0.00 0.00 35 1004.5
20260905021529 31 308 1.6 3.2 0.00 0.00 0.00 34 1004.5
20260905020015 31 303 3.2 4.8 0.00 0.00 0.00 33 1004.3
20260905014514 32 316 1.6 8.0 0.00 0.00 0.00 31 1004.2
20260905013015 32 314 4.8 11.3 0.00 0.00 0.00 32 1004.1
20260905011512 32 322 4.8 11.3 0.00 0.00 0.00 32 1004.0
20260905010011 33 299 4.8 16.1 0.00 0.00 0.00 31 1004.0
20260905004513 33 329 8.0 14.5 0.00 0.00 0.00 31 1003.9
20260905003020 33 300 4.8 11.3 0.00 0.00 0.00 31 1003.8
20260905001510 33 321 6.4 17.7 0.00 0.00 0.00 32 1003.7
20260905000009 34 329 9.7 20.9 0.00 0.00 0.00 29 1003.6
20260904234508 34 296 8.0 17.7 0.00 0.00 0.00 28 1003.5
20260904233021 35 297 8.0 20.9 0.00 0.00 0.00 27 1003.7
20260904231508 34 311 9.7 20.9 0.00 0.00 0.00 27 1003.7
20260904230014 34 313 8.0 19.3 0.00 0.00 0.00 29 1003.8
20260904224505 35 337 6.4 19.3 0.00 0.00 0.00 31 1003.6
20260904223004 35 255 6.4 14.5 0.00 0.00 0.00 32 1003.9
20260904221502 35 293 6.4 14.5 0.00 0.00 0.00 32 1004.0
20260904220109 35 346 8.0 16.1 0.00 0.00 0.00 32 1004.2
20260904214559 34 327 4.8 12.9 0.00 0.00 0.00 32 1004.3
20260904213058 35 264 3.2 9.7 0.00 0.00 0.00 31 1004.6
20260904211555 34 276 1.6 8.0 0.00 0.00 0.00 30 1004.8
20260904210057 34 314 3.2 9.7 0.00 0.00 0.00 30 1005.0
20260904204549 33 329 0.0 12.9 0.00 0.00 0.00 34 1005.0
20260904203048 33 327 4.8 12.9 0.00 0.00 0.00 39 1005.4
20260904201555 33 295 9.7 12.9 0.00 0.00 0.00 38 1005.6
20260904200049 33 316 6.4 11.3 0.00 0.00 0.00 38 1005.8
20260904194541 32 281 1.6 8.0 0.00 0.00 0.00 42 1006.0
20260904193045 33 341 1.6 9.7 0.00 0.00 0.00 42 1006.2
20260904191541 32 207 3.2 11.3 0.00 0.00 0.00 41 1006.6
20260904190037 32 238 3.2 9.7 0.00 0.00 0.00 42 1006.7
20260904184541 32 283 3.2 8.0 0.00 0.00 0.00 45 1006.9
20260904183031 31 285 3.2 11.3 0.00 0.00 0.00 46 1007.1
20260904181532 30 285 4.8 9.7 0.00 0.00 0.00 51 1007.4
20260904180024 30 318 3.2 11.3 0.00 0.00 0.00 52 1007.7
20260904174526 29 299 1.6 8.0 0.00 0.00 0.00 53 1007.8
20260904173020 29 309 3.2 12.9 0.00 0.00 0.00 55 1007.9
20260904171525 29 304 1.6 14.5 0.00 0.00 0.00 57 1008.0
20260904170016 28 307 3.2 9.7 0.00 0.00 0.00 58 1008.1
20260904164514 28 302 3.2 9.7 0.00 0.00 0.00 60 1008.0
20260904163018 27 243 1.6 11.3 0.00 0.00 0.00 61 1008.0
20260904161515 27 243 1.6 4.8 0.00 0.00 0.00 61 1007.9
20260904160007 27 339 0.0 6.4 0.00 0.00 0.00 64 1007.9
20260904154509 26 266 0.0 4.8 0.00 0.00 0.00 65 1007.9
20260904153004 26 248 1.6 9.7 0.00 0.00 0.00 65 1007.9
20260904151502 26 312 0.0 8.0 0.00 0.00 0.00 68 1007.9
20260904150002 26 305 1.6 4.8 0.00 0.00 0.00 68 1007.8
20260904144502 25 302 0.0 3.2 0.00 0.00 0.00 70 1007.9
20260904143100 25 317 1.6 8.0 0.00 0.00 0.00 71 1007.7
20260904141602 24 266 0.0 1.6 0.00 0.00 0.00 74 1007.6
20260904140056 23 332 0.0 3.2 0.00 0.00 0.00 75 1007.5
20260904134601 23 332 0.0 3.2 0.00 0.00 0.00 77 1007.3